Bluefield, WV

8:58 PM EST on November 18, 2017 (GMT -0500)
Mercer County

Weather History for KBLF - June, 2013

Change the Weather History Date:

Saturday, June 8, 2013

  Actual Average Record
Temperature  
Mean Temperature 69 °F 68 °F  
Max Temperature 78 °F 77 °F 90 °F (2011)
Min Temperature 59 °F 59 °F 42 °F (1977)
Degree Days  
Heating Degree Days 0 1  
Month to date heating degree days 0 13  
Since 1 June heating degree days 0 13  
Since 1 July heating degree days 4686 4579  
Cooling Degree Days 4 4  
Month to date cooling degree days 37 31  
Year to date cooling degree days 151 122  
Since 1 June cooling degree days 37 31  
Growing Degree Days 18 (Base 50)    
Moisture  
Dew Point 56 °F    
Average Humidity 67    
Maximum Humidity 87    
Minimum Humidity 46    
Precipitation  
Precipitation T in 0.14 in 0.62 in (2006)
Month to date precipitation 0.68 1.17  
Year to date precipitation 19.21 17.99  
Snow  
Snow 0.00 in - - ()
Month to date snowfall 0.0  
Since 1 June snowfall 0.0  
Since 1 July snowfall 56.0  
Snow Depth 0.00 in    
Sea Level Pressure  
Sea Level Pressure 29.97 in    
Wind  
Wind Speed 4 mph (West)    
Max Wind Speed 14 mph    
Max Gust Speed 18 mph    
Visibility 4 miles    
Events Fog , Rain    
T = Trace of Precipitation, MM = Missing Value Source: NWS Daily Summary

Daily Weather History Graph

Daily Weather History Graph

Search for Another Location

Airport or City:

Trip Planner

Search our weather history database for the weather conditions in past years. The results will help you decide how hot, cold, wet, or windy it might be!

Date:

Astronomy

Jun. 08, 2013 Rise Set
Actual Time 6:04 AM EDT 8:44 PM EDT
Civil Twilight 5:33 AM EDT 9:14 PM EDT
Nautical Twilight 4:54 AM EDT 9:53 PM EDT
Astronomical Twilight 4:11 AM EDT 10:36 PM EDT
Moon 6:09 AM EDT (6/8) 8:46 PM EDT (6/8)
Length of Visible Light 15h 41m
Length of Day
14h 39m
New Moon, 0% of the Moon is Illuminated
Jun 8
New Moon
Jun 16
First Quarter
Jun 23
Full
Jun 30
Last Quarter
Jul 8
New

Hourly Weather History & Observations

Time (EDT) Temp. Dew Point Humidity Pressure Visibility Wind Dir Wind Speed Gust Speed Precip Events Conditions
12:02 AM 60.8 °F 55.4 °F 82% 29.95 in 5.0 mi Calm Calm - N/A   Haze
12:52 AM 60.1 °F 55.9 °F 86% 29.86 in 2.0 mi West 4.6 mph - N/A   Scattered Clouds
12:55 AM 60.8 °F 55.4 °F 82% 29.94 in 1.8 mi West 4.6 mph - N/A   Mostly Cloudy
1:04 AM 60.8 °F 55.4 °F 82% 29.94 in 3.0 mi West 4.6 mph - N/A   Mostly Cloudy
1:14 AM 60.8 °F 55.4 °F 82% 29.93 in 2.5 mi West 3.5 mph - N/A   Overcast
1:23 AM 60.8 °F 55.4 °F 82% 29.94 in 4.0 mi West 3.5 mph - N/A   Overcast
1:34 AM 60.8 °F 55.4 °F 82% 29.94 in 6.0 mi WSW 3.5 mph - N/A   Overcast
1:52 AM 60.1 °F 55.9 °F 86% 29.86 in 4.0 mi Calm Calm - N/A   Overcast
2:38 AM 60.8 °F 55.4 °F 82% 29.94 in 1.8 mi Calm Calm - 0.00 in Rain Light Rain
2:44 AM 60.8 °F 55.4 °F 82% 29.94 in 0.8 mi Calm Calm - 0.00 in Rain Light Rain
2:52 AM 60.1 °F 55.9 °F 86% 29.87 in 1.0 mi SW 3.5 mph - 0.00 in   Overcast
2:56 AM 60.8 °F 55.4 °F 82% 29.95 in 2.0 mi WSW 3.5 mph - N/A   Overcast
3:05 AM 60.8 °F 55.4 °F 82% 29.94 in 4.0 mi West 4.6 mph - N/A   Overcast
3:39 AM 60.8 °F 55.4 °F 82% 29.94 in 4.0 mi Calm Calm - 0.00 in Rain Light Rain
3:49 AM 60.8 °F 55.4 °F 82% 29.94 in 1.5 mi Calm Calm - 0.00 in Rain Light Rain
3:50 AM 60.1 °F 55.9 °F 86% 29.86 in 1.2 mi Calm Calm - 0.00 in Rain Light Rain
3:58 AM 60.8 °F 55.4 °F 82% 29.95 in 1.0 mi Calm Calm - 0.00 in Rain Light Rain
4:06 AM 60.8 °F 55.4 °F 82% 29.95 in 1.5 mi WSW 3.5 mph - 0.00 in Rain Light Rain
4:10 AM 60.8 °F 55.4 °F 82% 29.95 in 0.8 mi West 3.5 mph - 0.00 in   Overcast
4:25 AM 60.8 °F 55.4 °F 82% 29.96 in 1.2 mi West 4.6 mph - 0.00 in Rain Light Rain
4:31 AM 60.8 °F 55.4 °F 82% 29.96 in 3.0 mi West 3.5 mph - 0.00 in   Overcast
4:39 AM 60.8 °F 55.4 °F 82% 29.96 in 1.8 mi Calm Calm - 0.00 in   Overcast
4:44 AM 60.8 °F 55.4 °F 82% 29.96 in 0.8 mi West 4.6 mph - 0.00 in Rain Light Rain
4:52 AM 60.1 °F 55.0 °F 83% 29.88 in 1.0 mi NW 5.8 mph - 0.00 in Rain Light Rain
4:56 AM 60.8 °F 55.4 °F 82% 29.96 in 2.0 mi WNW 3.5 mph - 0.00 in Rain Light Rain
5:09 AM 60.8 °F 55.4 °F 82% 29.96 in 2.0 mi Calm Calm - 0.00 in Rain Light Rain
5:29 AM 59.0 °F 55.4 °F 88% 29.97 in 1.0 mi Calm Calm - 0.00 in Rain Light Rain
5:52 AM 59.0 °F 55.0 °F 87% 29.90 in 0.8 mi Calm Calm - 0.00 in   Overcast
5:55 AM 59.0 °F 55.4 °F 88% 29.98 in 1.2 mi Calm Calm - N/A   Overcast
6:01 AM 59.0 °F 55.4 °F 88% 29.98 in 3.0 mi Calm Calm - N/A   Overcast
6:24 AM 59.0 °F 55.4 °F 88% 29.98 in 1.2 mi ESE 3.5 mph - N/A   Overcast
6:28 AM 59.0 °F 55.4 °F 88% 29.98 in 0.8 mi ESE 3.5 mph - N/A   Overcast
6:36 AM 59.0 °F 55.4 °F 88% 29.98 in 0.5 mi ESE 3.5 mph - N/A Fog Fog
6:44 AM 59.0 °F 55.4 °F 88% 29.99 in 0.5 mi Calm Calm - N/A Fog Fog
6:52 AM 59.0 °F 55.0 °F 87% 29.92 in 0.8 mi Calm Calm - N/A   Mostly Cloudy
7:01 AM 59.0 °F 55.4 °F 88% 30.00 in 1.0 mi Calm Calm - N/A   Mostly Cloudy
7:09 AM 59.0 °F 55.4 °F 88% 30.00 in 0.5 mi Calm Calm - N/A Fog Fog
7:15 AM 60.8 °F 55.4 °F 82% 30.01 in 1.5 mi Calm Calm - N/A   Mostly Cloudy
7:26 AM 60.8 °F 55.4 °F 82% 30.01 in 2.5 mi Calm Calm - N/A   Mostly Cloudy
7:35 AM 60.8 °F 55.4 °F 82% 30.01 in 1.5 mi Calm Calm - N/A   Overcast
7:52 AM 59.0 °F 55.0 °F 87% 29.93 in 1.0 mi Calm Calm - N/A   Overcast
8:00 AM 60.8 °F 55.4 °F 82% 30.00 in 0.8 mi Calm Calm - N/A   Mostly Cloudy
8:04 AM 60.8 °F 55.4 °F 82% 30.00 in 1.2 mi Calm Calm - N/A   Haze
8:07 AM 60.8 °F 57.2 °F 88% 30.00 in 2.5 mi Calm Calm - N/A   Mostly Cloudy
8:15 AM 62.6 °F 55.4 °F 77% 30.01 in 5.0 mi WSW 3.5 mph - N/A   Haze
8:52 AM 64.0 °F 55.9 °F 75% 29.94 in 10.0 mi West 3.5 mph - N/A   Clear
9:52 AM 66.9 °F 55.9 °F 68% 29.96 in 10.0 mi West 6.9 mph - N/A   Clear
10:52 AM 70.0 °F 57.0 °F 63% 29.97 in 10.0 mi Variable 6.9 mph - 0.01 in   Scattered Clouds
11:52 AM 72.0 °F 55.9 °F 57% 29.99 in 10.0 mi NW 6.9 mph 16.1 mph N/A   Mostly Cloudy
12:20 PM 73.4 °F 55.4 °F 53% 30.08 in 10.0 mi WNW 9.2 mph 17.3 mph N/A   Scattered Clouds
12:52 PM 73.9 °F 55.0 °F 52% 29.99 in 10.0 mi WNW 8.1 mph 18.4 mph N/A   Scattered Clouds
1:52 PM 73.9 °F 54.0 °F 50% 29.99 in 10.0 mi WNW 5.8 mph - N/A   Mostly Cloudy
2:52 PM 75.9 °F 54.0 °F 46% 29.99 in 10.0 mi WNW 5.8 mph - N/A   Mostly Cloudy
3:52 PM 77.0 °F 55.9 °F 48% 29.98 in 10.0 mi Variable 5.8 mph - N/A   Partly Cloudy
4:52 PM 75.9 °F 55.9 °F 50% 29.99 in 10.0 mi West 8.1 mph - N/A   Mostly Cloudy
5:52 PM 77.0 °F 55.9 °F 48% 30.01 in 10.0 mi Variable 6.9 mph - N/A   Clear
6:52 PM 75.9 °F 55.0 °F 48% 30.01 in 10.0 mi WSW 4.6 mph - N/A   Clear
7:52 PM 73.9 °F 55.9 °F 53% 30.04 in 10.0 mi Calm Calm - N/A   Clear
8:52 PM 70.0 °F 57.0 °F 63% 30.05 in 10.0 mi Calm Calm - N/A   Partly Cloudy
9:52 PM 68.0 °F 55.9 °F 65% 30.07 in 10.0 mi Calm Calm - N/A   Clear
10:52 PM 66.9 °F 55.9 °F 68% 30.08 in 10.0 mi South 3.5 mph - N/A   Mostly Cloudy
11:52 PM 68.0 °F 55.9 °F 65% 30.09 in 10.0 mi SSE 3.5 mph - N/A   Clear